Regional Weather Roundup
Issued by NWS

Home | Current Version | Previous Version | Graphics & Text | Print | Product List | Glossary Off
Versions: 1 2 3 4 5 6 7 8 9 10 11 12 13 14 15 16 17 18 19 20 21 22 23 24 25 26 27 28 29 30 31 32 33 34 35 36 37 38 39 40 41 42 43 44 45 46 47 48 49 50

000
ASUS43 KLSX 271259
RWRMO

WEATHER SUMMARY FOR MISSOURI
NATIONAL WEATHER SERVICE SPRINGFIELD MO
700 AM CST FRI FEB 27 2015

NOTE: "FAIR" INDICATES FEW OR NO CLOUDS BELOW 12,000 FEET WITH NO
       SIGNIFICANT WEATHER AND/OR OBSTRUCTIONS TO VISIBILITY.
       CURRENT SKY AND/OR WEATHER CONDITIONS ARE NOT AVAILABLE FOR
       CHILLICOTHE AND FARMINGTON.

MOZ001>031-035>038-043-044-053-054-271400-
...NORTHERN AND WESTERN MISSOURI...

CITY           SKY/WX    TMP DP  RH WIND       PRES   REMARKS
KANSAS CTY INT PTCLDY     2  -3  80 N3        30.61R
KANSAS C DTWN  CLEAR      6  -3  66 N5        30.64R WCI  -3
LEE`S SUMMIT   PTCLDY     4  -4  69 N5        30.61R WCI  -5
ST JOSEPH      CLEAR      0  -4  83 CALM      30.65R
CHILLICOTHE      N/A      0  -6  76 NW3       30.65R
KIRKSVILLE     CLEAR     -8 -11  86 W5        30.60R WCI -19

$$
MOZ066>068-077>081-088>096-101>105-271400-
...SOUTHWEST MISSOURI...

CITY           SKY/WX    TMP DP  RH WIND       PRES   REMARKS
SPRINGFIELD    CLEAR      6  -1  73 N6        30.55R WCI  -4
JOPLIN         CLEAR      8   1  73 NE8       30.57F WCI  -4

$$
MOZ032>034-039>042-045>050-055>058-069>072-271400-
...CENTRAL MISSOURI...

CITY           SKY/WX    TMP DP  RH WIND       PRES   REMARKS
COLUMBIA       CLEAR      2  -3  80 CALM      30.61R
JEFFERSON CITY CLEAR      3  -3  76 CALM      30.67R
ROLLA          CLEAR      2  -6  69 N6        30.57R WCI  -9
SEDALIA        CLEAR      3  -2  79 CALM      30.64R
OSAGE BEACH    CLEAR      1  -2  85 NE3       30.61R

$$
MOZ051-052-059>065-271400-
...EAST CENTRAL MISSOURI...

CITY           SKY/WX    TMP DP  RH WIND       PRES   REMARKS
ST LOUIS INTL  PTCLDY     3  -6  66 W5        30.64R WCI  -6
SPIRIT OF STL  CLEAR      2  -4  76 W3        30.64R
ST CHARLES     PTCLDY    -3  -7  82 SW5       30.66R WCI -13

$$
MOZ072>076-082>087-097>100-106>115-271400-
...SOUTH CENTRAL AND SOUTHEAST MISSOURI...

CITY           SKY/WX    TMP DP  RH WIND       PRES   REMARKS
CAPE GIRARDEAU CLEAR      8   1  73 N9        30.62R WCI  -5
FARMINGTON     CLEAR      3  -2  78 N7        30.59S WCI  -9
POPLAR BLUFF   CLEAR     11   0  61 N14       30.60S WCI  -5
WEST PLAINS    CLEAR      6  -2  69 NE8       30.54R WCI  -7

$$



USA.gov is the U.S. government's official web portal to all federal, state and local government web resources and services.